Weather in Zaplyusye

Russia / Pskov Oblast     58°26′14″N   29°44′01″E
temp.,
°C
wind,
m/s
gust,
m/s
humid.,
%
clouds,
%
prec.,
mm/h
press.,
hPa
HPBL,
m
23 april, fri
fri2300:00+5ssw2889100 0.9 1007312
03:00+4ssw3989100 0.9 1007391
06:00+3ssw398995 0.0 1006540
09:00+4ssw5775100 0.1 10071119
12:00+4s4871100 0.0 10071421
15:00+6s5856100 0.1 10071646
18:00+6sw586490 0.6 10071349
21:00+2s278553 0.8 1008161
24 april, sat
sat2400:000ssw27946 0.0 1008183
03:00+2sw2599100 0.1 1007315
06:000w379697 0.3 1008467
09:00+1w3578100 0.3 1008827
12:00+2wsw4569100 0.0 10091055
15:00+5sw2655100 0.1 10081438
18:00+5wsw4563100 0.6 10081201
21:00+2wsw379087 0.9 1008313
25 april, sun
sun2500:00−1wsw28965 0.0 1008228
03:00−2sw269824 0.0 1008164
06:00−2ssw249871 0.0 1007145
09:00+1wsw1278100 0.0 1007548
12:00+3wnw1265100 0.1 1007952
15:00+4nw2356100 0.1 10071107
18:00+5nw125048 0.0 10071259
21:00+1nw227495 0.0 100714
26 april, mon
mon2600:000nw2495100 0.0 1008105
03:00−1wnw2497100 0.0 100885
06:00−1wsw269195 0.0 1007175
09:00+4w3568100 0.0 1007839
12:00+5wsw3560100 0.1 10071127
15:00+6wsw4556100 0.4 10071556
18:00+6w3559100 0.2 10071287
21:00+2wsw2379100 0.2 100761
27 april, tue
tue2700:000sw2388100 0.0 100780
03:000sw1392100 0.0 100685
06:00+1wsw2498100 0.1 1006156
09:00+2w2596100 0.3 1006346
12:00+2wnw2499100 0.4 1007354
15:00+3nw2596100 0.6 1008422
18:00+3nnw2595100 0.3 1009481
21:00+3wnw2594100 0.4 1010204